Home   Weather   Paterson   Past weeks

Flag for USA Past Weather in Paterson, New Jersey, USA — Yesterday and Last 2 Weeks

Now
88 °F

Partly sunny.


Feels Like: 91 °F
Forecast: 71 / 94 °F
Wind: 8 mph from West

Location: Essex County Airport

Current Time: Jul 21, 2017 at 6:54:20 pm

Latest Report: Jul 21, 2017 at 5:53 pm


Visibility: 10 mi

Pressure: 29.87 "Hg

Humidity: 50%

Dew Point: 67 °F

Location of PatersonLocation

Past Weather in Paterson — Graph

°F

Paterson Temperature Yesterday

Maximum temperature yesterday: 93 °F (at 12:53 pm)
Minimum temperature yesterday: 71 °F (at 4:53 am)
Average temperature yesterday: 81 °F

High & Low Weather Summary for the Past Weeks

 TemperatureHumidityPressure
High93 °F (Jul 20, 12:53 pm)100% (Jul 14, 5:03 am)30.11 "Hg (Jul 14, 5:03 am)
Low59 °F (Jul 10, 5:53 am)33% (Jul 9, 1:53 pm)29.74 "Hg (Jul 7, 6:53 pm)
Average76 °F72%29.98 "Hg
* Reported Jul 6 4:53 pm — Jul 21 4:53 pm, Paterson. Weather by CustomWeather, © 2017

Note: Actual official high and low records may vary slightly from our data, if they occured in-between our weather recording intervals... More about our weather records

Advertising

Paterson Weather History for the Previous 24 Hours

Scroll right to see more
 ConditionsComfort  
Time TempWeatherWind HumidityBarometerVisibility
4:53 pm
Fri, Jul 21
90 °FPassing clouds.3 mph45%29.88 "Hg10 mi
3:53 pm90 °FSunny.8 mph42%29.89 "Hg10 mi
2:53 pm89 °FSunny.10 mph43%29.89 "Hg10 mi
1:53 pm89 °FPassing clouds.10 mph43%29.90 "Hg10 mi
12:53 pm88 °FSunny.7 mph46%29.92 "Hg10 mi
11:53 am86 °FSunny.8 mph51%29.93 "Hg10 mi
10:53 am84 °FSunny.12 mph55%29.94 "Hg10 mi
9:53 am82 °FSunny.9 mph63%29.95 "Hg10 mi
8:53 am78 °FScattered clouds.5 mph71%29.95 "Hg10 mi
7:53 am75 °FScattered clouds.No wind82%29.93 "Hg10 mi
6:53 am71 °FScattered clouds.No wind93%29.93 "Hg10 mi
5:53 am71 °FPartly sunny.No wind90%29.91 "Hg9 mi
4:53 am71 °FClear.No wind90%29.91 "Hg10 mi
3:53 am72 °FClear.No wind91%29.90 "Hg10 mi
2:53 am72 °FPassing clouds.3 mph91%29.90 "Hg10 mi
1:53 am72 °FPassing clouds.No wind91%29.91 "Hg10 mi
12:53 am72 °FPassing clouds.3 mph91%29.91 "Hg10 mi
11:53 pm
Thu, Jul 20
73 °FClear.No wind88%29.91 "Hg10 mi
10:53 pm73 °FClear.No wind84%29.90 "Hg10 mi
9:53 pm73 °FClear.5 mph90%29.91 "Hg10 mi
8:53 pm75 °FClear.5 mph88%29.92 "Hg10 mi
7:53 pm81 °FLight rain. Scattered clouds.10 mph67%29.92 "Hg8 mi
6:53 pm88 °FScattered clouds.3 mph52%29.89 "Hg10 mi
Weather by CustomWeather, © 2017

See weather overviewHow to use our weather pages